timestamp,surface_pressure_avg,surface_temp_avg,battery_voltage,lat,long
2017-11-29 00:00:00+00:00,235.3081,6.98,12.65,47.84626,-54.09684
2017-11-29 00:10:00+00:00,228.6597,7.0,12.57,47.84626,-54.09684
2017-11-29 00:20:00+00:00,224.6348,7.0,12.65,47.84626,-54.09684
2017-11-29 00:30:00+00:00,225.9715,7.0,12.65,47.84626,-54.09684
2017-11-29 00:40:00+00:00,221.4698,6.99,12.65,47.84626,-54.09684
2017-11-29 00:50:00+00:00,214.4581,7.0,12.65,47.84626,-54.09684
2017-11-29 01:00:00+00:00,214.4498,7.0,12.65,47.84626,-54.09684
2017-11-29 01:10:00+00:00,213.7865,7.0,12.57,47.84626,-54.09684
2017-11-29 01:20:00+00:00,208.6398,7.0,12.65,47.84626,-54.09684
2017-11-29 01:30:00+00:00,209.5931,6.9,12.65,47.84626,-54.09684
2017-11-29 01:40:00+00:00,215.7397,6.93,12.65,47.84626,-54.09684
2017-11-29 01:50:00+00:00,214.2264,6.97,12.65,47.84626,-54.09684
2017-11-29 02:00:00+00:00,211.8815,6.9,12.65,47.84626,-54.09684
2017-11-29 02:10:00+00:00,220.6898,6.9,12.57,47.84626,-54.09684
2017-11-29 02:20:00+00:00,226.0814,6.9,12.65,47.84626,-54.09684
2017-11-29 02:30:00+00:00,221.2831,6.8,12.65,47.84626,-54.09684
2017-11-29 02:40:00+00:00,221.4881,6.78,12.65,47.84626,-54.09684
2017-11-29 02:50:00+00:00,228.7898,6.79,12.65,47.84626,-54.09684
2017-11-29 03:00:00+00:00,230.1348,6.72,12.65,47.84626,-54.09684
2017-11-29 03:10:00+00:00,232.8247,6.7,12.57,47.84626,-54.09684
2017-11-29 03:20:00+00:00,238.2131,6.65,12.65,47.84626,-54.09684
2017-11-29 03:30:00+00:00,240.6081,6.6,12.65,47.84626,-54.09684
2017-11-29 03:40:00+00:00,244.0248,6.6,12.65,47.84626,-54.09684
2017-11-29 03:50:00+00:00,251.2314,6.64,12.65,47.84626,-54.09684
2017-11-29 04:00:00+00:00,252.8065,6.69,12.65,47.84626,-54.09684
2017-11-29 04:10:00+00:00,256.2981,6.69,12.57,47.84626,-54.09684
2017-11-29 04:20:00+00:00,264.4464,6.78,12.65,47.84626,-54.09684
2017-11-29 04:30:00+00:00,270.0331,7.3,12.65,47.84626,-54.09684
2017-11-29 04:40:00+00:00,269.7614,7.0,12.65,47.84626,-54.09684
2017-11-29 04:50:00+00:00,278.1114,7.3,12.65,47.84626,-54.09684
2017-11-29 05:00:00+00:00,289.2913,7.38,12.65,47.84626,-54.09684
2017-11-29 05:10:00+00:00,294.0731,7.3,12.57,47.84626,-54.09684
2017-11-29 05:20:00+00:00,294.698,7.3,12.65,47.84626,-54.09684
2017-11-29 05:30:00+00:00,304.7897,7.3,12.65,47.84626,-54.09684
2017-11-29 05:40:00+00:00,308.463,7.3,12.65,47.84626,-54.09684
2017-11-29 05:50:00+00:00,305.0163,7.3,12.65,47.84626,-54.09684
2017-11-29 06:00:00+00:00,305.8913,7.3,12.65,47.84626,-54.09684
2017-11-29 06:10:00+00:00,315.1563,7.3,12.57,47.84626,-54.09684
2017-11-29 06:20:00+00:00,314.4346,7.3,12.65,47.84626,-54.09684
2017-11-29 06:30:00+00:00,313.1929,7.3,12.65,47.84626,-54.09684
2017-11-29 06:40:00+00:00,317.2796,7.3,12.65,47.84626,-54.09684
2017-11-29 06:50:00+00:00,319.9163,7.3,12.65,47.84626,-54.09684
2017-11-29 07:00:00+00:00,317.5613,7.3,12.65,47.84626,-54.09684
2017-11-29 07:10:00+00:00,323.923,7.33,12.57,47.84626,-54.09684
2017-11-29 07:20:00+00:00,329.898,7.3,12.65,47.84626,-54.09684
2017-11-29 07:30:00+00:00,323.808,7.3,12.65,47.84626,-54.09684
2017-11-29 07:40:00+00:00,316.9646,7.3,12.65,47.84626,-54.09684
2017-11-29 07:50:00+00:00,320.8163,7.29,12.65,47.84626,-54.09684
2017-11-29 08:00:00+00:00,320.893,7.3,12.65,47.84626,-54.09684
2017-11-29 08:10:00+00:00,319.003,7.3,12.57,47.84626,-54.09684
2017-11-29 08:20:00+00:00,320.5514,7.3,12.65,47.84626,-54.09684
2017-11-29 08:30:00+00:00,323.8347,7.3,12.65,47.84626,-54.09684
2017-11-29 08:40:00+00:00,319.6697,7.32,12.65,47.84626,-54.09684
2017-11-29 08:50:00+00:00,314.2564,7.32,12.65,47.84626,-54.09684
2017-11-29 09:00:00+00:00,311.4097,7.35,12.65,47.84626,-54.09684
2017-11-29 09:10:00+00:00,313.3063,7.32,12.57,47.84626,-54.09684
2017-11-29 09:20:00+00:00,308.2646,7.3,12.65,47.84626,-54.09684
2017-11-29 09:30:00+00:00,303.8963,7.3,12.65,47.84626,-54.09684
2017-11-29 09:40:00+00:00,298.0046,7.34,12.65,47.84626,-54.09684
2017-11-29 09:50:00+00:00,293.8214,7.34,12.65,47.84626,-54.09684
2017-11-29 10:00:00+00:00,284.153,7.39,12.65,47.84626,-54.09684
2017-11-29 10:10:00+00:00,280.5648,7.39,12.57,47.84626,-54.09684
2017-11-29 10:20:00+00:00,276.6965,7.4,12.65,47.84626,-54.09684
2017-11-29 10:30:00+00:00,275.5597,7.4,12.65,47.84626,-54.09684
2017-11-29 10:40:00+00:00,271.433,7.4,12.65,47.84626,-54.09684
2017-11-29 10:50:00+00:00,267.7614,7.3,12.65,47.84626,-54.09684
2017-11-29 11:00:00+00:00,259.8114,7.2,12.65,47.84626,-54.09684
2017-11-29 11:10:00+00:00,254.3381,7.34,12.57,47.84626,-54.09684
2017-11-29 11:20:00+00:00,247.5498,7.37,12.73,47.84626,-54.09684
2017-11-29 11:30:00+00:00,243.3681,7.3,12.73,47.84626,-54.09684
2017-11-29 11:40:00+00:00,240.2298,7.27,12.65,47.84626,-54.09684
2017-11-29 11:50:00+00:00,236.9614,7.3,12.65,47.84626,-54.09684
2017-11-29 12:00:00+00:00,235.6298,7.34,12.65,47.84626,-54.09684
2017-11-29 12:10:00+00:00,233.7281,7.3,12.65,47.84626,-54.09684
2017-11-29 12:20:00+00:00,226.2348,7.24,12.73,47.84626,-54.09684
2017-11-29 12:30:00+00:00,220.7548,7.29,12.65,47.84626,-54.09684
2017-11-29 12:40:00+00:00,220.4464,7.2,12.73,47.84626,-54.09684
2017-11-29 12:50:00+00:00,218.0697,7.2,12.73,47.84626,-54.09684
2017-11-29 13:00:00+00:00,210.3514,7.2,12.65,47.84626,-54.09684
2017-11-29 13:10:00+00:00,207.0064,7.21,12.57,47.84626,-54.09684
2017-11-29 13:20:00+00:00,212.4481,7.3,12.65,47.84626,-54.09684
2017-11-29 13:30:00+00:00,213.1731,7.3,12.73,47.84626,-54.09684
2017-11-29 13:40:00+00:00,213.1498,7.38,12.73,47.84626,-54.09684
2017-11-29 13:50:00+00:00,217.0964,7.39,12.81,47.84626,-54.09684
2017-11-29 14:00:00+00:00,218.4864,7.4,12.73,47.84626,-54.09684
2017-11-29 14:10:00+00:00,217.4981,7.4,12.65,47.84626,-54.09684
2017-11-29 14:20:00+00:00,218.1615,7.4,12.73,47.84626,-54.09684
2017-11-29 14:30:00+00:00,220.6097,7.4,12.73,47.84626,-54.09684
2017-11-29 14:40:00+00:00,224.3665,7.4,12.73,47.84626,-54.09684
2017-11-29 14:50:00+00:00,229.1781,7.4,12.81,47.84626,-54.09684
2017-11-29 15:00:00+00:00,231.7547,7.4,12.65,47.84626,-54.09684
2017-11-29 15:10:00+00:00,232.5364,7.4,12.57,47.84626,-54.09684
2017-11-29 15:20:00+00:00,234.5448,7.4,12.65,47.84626,-54.09684
2017-11-29 15:30:00+00:00,235.0081,7.4,12.65,47.84626,-54.09684
2017-11-29 15:40:00+00:00,236.9681,7.4,12.65,47.84626,-54.09684
2017-11-29 15:50:00+00:00,238.1497,7.4,12.65,47.84626,-54.09684
2017-11-29 16:00:00+00:00,239.2248,7.4,12.65,47.84626,-54.09684
2017-11-29 16:10:00+00:00,242.9364,7.4,12.57,47.84626,-54.09684
2017-11-29 16:20:00+00:00,247.4597,7.4,12.65,47.84626,-54.09684
2017-11-29 16:30:00+00:00,248.7531,7.4,12.65,47.84626,-54.09684
2017-11-29 16:40:00+00:00,250.8447,7.4,12.65,47.84626,-54.09684
2017-11-29 16:50:00+00:00,260.148,7.4,12.65,47.84626,-54.09684
2017-11-29 17:00:00+00:00,271.2831,7.4,12.65,47.84626,-54.09684
2017-11-29 17:10:00+00:00,277.2581,7.4,12.57,47.84626,-54.09684
2017-11-29 17:20:00+00:00,280.2297,7.4,12.65,47.84626,-54.09684
2017-11-29 17:30:00+00:00,287.183,7.4,12.65,47.84626,-54.09684
2017-11-29 17:40:00+00:00,293.168,7.4,12.65,47.84626,-54.09684
2017-11-29 17:50:00+00:00,298.1064,7.4,12.65,47.84626,-54.09684
2017-11-29 18:00:00+00:00,301.2913,7.4,12.65,47.84626,-54.09684
2017-11-29 18:10:00+00:00,306.0981,7.39,12.57,47.84626,-54.09684
2017-11-29 18:20:00+00:00,312.1564,7.36,12.65,47.84626,-54.09684
2017-11-29 18:30:00+00:00,317.2081,7.31,12.65,47.84626,-54.09684
2017-11-29 18:40:00+00:00,320.9014,7.3,12.65,47.84626,-54.09684
2017-11-29 18:50:00+00:00,323.6014,7.3,12.65,47.84626,-54.09684
2017-11-29 19:00:00+00:00,324.1047,7.3,12.65,47.84626,-54.09684
2017-11-29 19:10:00+00:00,326.4498,7.3,12.57,47.84626,-54.09684
2017-11-29 19:20:00+00:00,324.1097,7.3,12.65,47.84626,-54.09684
2017-11-29 19:30:00+00:00,325.4163,7.3,12.65,47.84626,-54.09684
2017-11-29 19:40:00+00:00,329.1964,7.3,12.65,47.84626,-54.09684
2017-11-29 19:50:00+00:00,331.8529,7.3,12.65,47.84626,-54.09684
2017-11-29 20:00:00+00:00,329.1796,7.3,12.65,47.84626,-54.09684
2017-11-29 20:10:00+00:00,329.7663,7.29,12.57,47.84626,-54.09684
2017-11-29 20:20:00+00:00,335.448,7.28,12.65,47.84626,-54.09684
2017-11-29 20:30:00+00:00,336.153,7.25,12.65,47.84626,-54.09684
2017-11-29 20:40:00+00:00,333.8713,7.22,12.65,47.84626,-54.09684
2017-11-29 20:50:00+00:00,332.4747,7.24,12.65,47.84626,-54.09684
2017-11-29 21:00:00+00:00,333.2747,7.21,12.65,47.84626,-54.09684
2017-11-29 21:10:00+00:00,330.748,7.2,12.57,47.84626,-54.09684
2017-11-29 21:20:00+00:00,322.313,7.2,12.65,47.84626,-54.09684
2017-11-29 21:30:00+00:00,319.3412,7.2,12.65,47.84626,-54.09684
2017-11-29 21:40:00+00:00,322.4913,7.2,12.65,47.84626,-54.09684
2017-11-29 21:50:00+00:00,321.008,7.2,12.65,47.84626,-54.09684
2017-11-29 22:00:00+00:00,315.393,7.2,12.65,47.84626,-54.09684
2017-11-29 22:10:00+00:00,309.6896,7.2,12.57,47.84626,-54.09684
2017-11-29 22:20:00+00:00,308.3396,7.2,12.65,47.84626,-54.09684
2017-11-29 22:30:00+00:00,302.603,7.2,12.65,47.84626,-54.09684
2017-11-29 22:40:00+00:00,292.7547,7.2,12.65,47.84626,-54.09684
2017-11-29 22:50:00+00:00,288.8064,7.2,12.65,47.84626,-54.09684
2017-11-29 23:00:00+00:00,284.8364,7.2,12.65,47.84626,-54.09684
2017-11-29 23:10:00+00:00,276.8997,7.2,12.65,47.84626,-54.09684
2017-11-29 23:20:00+00:00,266.4214,7.2,12.65,47.84626,-54.09684
2017-11-29 23:30:00+00:00,261.5664,7.2,12.65,47.84626,-54.09684
2017-11-29 23:40:00+00:00,253.3531,7.2,12.65,47.84626,-54.09684
2017-11-29 23:50:00+00:00,244.8698,7.2,12.65,47.84626,-54.09684
